Flag for Germany Weather past 2 weeks in Leutkirch im Allgäu, Baden-Württemberg, Germany

Now
58 °F

Clear.


Feels Like: 58 °F
Forecast: 41 / 71 °F
Wind: 2 mph from Northeast

Location: Kempten


UV Index: 3 (Moderate)

Visibility: 22 mi


Pressure: 29.92 "Hg

Humidity: 53%

Dew point: 40 °F

Location of Leutkirch im AllgäuLocation

Historic Weather in Leutkirch im Allgäu

°F

Leutkirch im Allgäu temperature yesterday

Maximum temperature yesterday: 65 °F (at 5:00 PM)
Minimum temperature yesterday: 35 °F (at 6:00 AM)
Average temperature yesterday: 52 °F

Past Weeks' High & Low Weather Summary

 TemperatureHumidityPressure
High68 °F (Apr 24, 5:00 PM)98% (Apr 19, 2:00 AM)30.42 "Hg (Apr 19, 2:00 AM)
Low25 °F (Apr 17, 7:00 AM)29% (Apr 17, 4:00 PM)29.60 "Hg (Apr 21, 2:00 PM)
Average46 °F74%30.02 "Hg
* Reported Apr 9 8:00 PM — Apr 24 8:00 PM, Leutkirch im Allgäu, Weather by CustomWeather, © 2014

Note: Actual official high and low records may vary slightly from our data, if they occured in-between our weather recording intervals... More about our weather records

Advertising

Historic Weather Conditions — Data for Previous 24 hours

 ConditionsComfort  
Time TempWeatherWind HumidityBarometerVisibility
8:00 PM
Apr 24
62 °FSunny.2 mph45%29.90 "Hg28 mi
7:00 PM65 °FSunny.3 mph41%29.89 "Hg28 mi
6:00 PM67 °FSunny.5 mph36%29.89 "Hg16 mi
5:00 PM68 °FPassing clouds.3 mph36%29.90 "Hg11 mi
4:00 PM67 °FPassing clouds.5 mph36%29.92 "Hg8 mi
3:00 PM68 °FPassing clouds.5 mph36%29.94 "Hg14 mi
2:00 PM65 °FScattered clouds.3 mph39%29.96 "Hg31 mi
1:00 PM65 °FPassing clouds.3 mph46%29.98 "Hg31 mi
12:00 PM64 °FPassing clouds.3 mph49%30.01 "Hg22 mi
10:00 AM57 °FPassing clouds.1 mph58%30.07 "Hg18 mi
9:00 AM51 °FSunny.1 mph78%30.10 "Hg25 mi
8:00 AM45 °FSunny.1 mph85%30.12 "Hg19 mi
7:00 AM39 °FSunny.2 mph96%30.15 "Hg15 mi
6:00 AM40 °FClear.1 mph95%30.14 "Hg12 mi
4:00 AM40 °FClear.2 mph96%30.14 "Hg7 mi
3:00 AM41 °FClear.1 mph95%30.13 "Hg10 mi
2:00 AM41 °FClear.2 mph95%30.14 "Hg9 mi
1:00 AM43 °FClear.1 mph91%30.13 "Hg14 mi
12:00 AM45 °FClear.2 mph89%30.12 "Hg17 mi
10:00 PM
Apr 23
49 °FClear.2 mph82%30.09 "Hg25 mi
9:00 PM53 °FClear.No wind76%30.06 "Hg25 mi
Weather by CustomWeather, © 2014

See weather overview